Weather History for KPOF - July, 2012

Change the Weather History Date:

Saturday, July 21, 2012

  Actual Average Record
Temperature  
Mean Temperature 81 °F -  
Max Temperature 91 °F 91 °F 103 °F (1934)
Min Temperature 72 °F 69 °F 53 °F (1944)
Cooling Degree Days 16    
Growing Degree Days 31 (Base 50)    
Moisture  
Dew Point 68 °F    
Average Humidity 67    
Maximum Humidity 90    
Minimum Humidity 42    
Precipitation  
Precipitation 0.00 in - - ()
Sea Level Pressure  
Sea Level Pressure 30.00 in    
Wind  
Wind Speed 6 mph (NE)    
Max Wind Speed 9 mph    
Max Gust Speed -    
Visibility 10 miles    
Events      
Averages and records for this station are not official NWS values.
T = Trace of Precipitation, MM = Missing Value Source: NWS Daily Summary

Daily Weather History Graph

Daily Weather History Graph

Search for Another Location

Airport or City:

Trip Planner

Search our weather history database for the weather conditions in past years. The results will help you decide how hot, cold, wet, or windy it might be!

Date:

Astronomy

Jul. 21, 2012 Rise Set
Actual Time 5:58 AM CDT 8:16 PM CDT
Civil Twilight 5:29 AM CDT 8:45 PM CDT
Nautical Twilight 4:53 AM CDT 9:21 PM CDT
Astronomical Twilight 4:13 AM CDT 10:01 PM CDT
Moon 8:34 AM CDT (7/21) 9:34 PM CDT (7/21)
Length of Visible Light 15h 16m
Length of Day
14h 17m
Waxing Crescent, 7% of the Moon is Illuminated
Jul 21
Waxing Crescent
Jul 26
First Quarter
Aug 1
Full
Aug 9
Last Quarter
Aug 17
New

Hourly Weather History & Observations

Time (CDT) Temp. Heat Index Dew Point Humidity Pressure Visibility Wind Dir Wind Speed Gust Speed Precip Events Conditions
12:53 AM 75.9 °F - 69.1 °F 79% 29.97 in 10.0 mi NNE 6.9 mph - N/A   Clear
1:53 AM 75.9 °F - 68.0 °F 76% 29.97 in 10.0 mi NNE 6.9 mph - N/A   Clear
2:53 AM 75.0 °F - 68.0 °F 79% 29.97 in 10.0 mi NNE 5.8 mph - N/A   Clear
3:53 AM 73.9 °F - 68.0 °F 82% 29.98 in 10.0 mi NNE 5.8 mph - N/A   Clear
5:53 AM 72.0 °F - 68.0 °F 87% 30.01 in 10.0 mi NNE 4.6 mph - N/A   Clear
6:53 AM 73.0 °F - 68.0 °F 84% 30.02 in 10.0 mi NNE 8.1 mph - N/A   Clear
7:53 AM 75.0 °F - 69.1 °F 82% 30.02 in 10.0 mi NNE 9.2 mph - N/A   Clear
8:53 AM 78.1 °F - 70.0 °F 76% 30.03 in 10.0 mi North 8.1 mph - N/A   Clear
9:53 AM 81.0 °F 84.4 °F 70.0 °F 69% 30.03 in 10.0 mi NE 6.9 mph - N/A   Clear
10:53 AM 84.0 °F 88.4 °F 70.0 °F 63% 30.04 in 10.0 mi NE 8.1 mph - N/A   Clear
11:53 AM 84.9 °F 88.8 °F 69.1 °F 59% 30.03 in 10.0 mi NE 6.9 mph - N/A   Clear
12:53 PM 88.0 °F 91.4 °F 68.0 °F 51% 30.03 in 10.0 mi Variable 5.8 mph - N/A   Clear
1:53 PM 88.0 °F 90.3 °F 66.0 °F 48% 30.02 in 10.0 mi Variable 5.8 mph - N/A   Clear
2:53 PM 89.1 °F 91.3 °F 66.0 °F 46% 30.00 in 10.0 mi Variable 4.6 mph - N/A   Clear
3:53 PM 90.0 °F 91.3 °F 64.0 °F 42% 29.99 in 10.0 mi East 6.9 mph - N/A   Clear
4:53 PM 90.0 °F 92.8 °F 66.9 °F 46% 29.98 in 10.0 mi ENE 6.9 mph - N/A   Clear
5:53 PM 90.0 °F 92.4 °F 66.0 °F 45% 29.98 in 10.0 mi SE 4.6 mph - N/A   Clear
6:53 PM 88.0 °F 91.4 °F 68.0 °F 51% 29.98 in 10.0 mi ESE 4.6 mph - N/A   Clear
7:53 PM 84.0 °F 87.8 °F 69.1 °F 61% 29.98 in 10.0 mi Calm Calm - N/A   Clear
8:53 PM 79.0 °F - 68.0 °F 69% 29.98 in 10.0 mi ESE 3.5 mph - N/A   Clear
9:53 PM 75.0 °F - 70.0 °F 84% 29.99 in 10.0 mi Calm Calm - N/A   Clear
10:53 PM 73.0 °F - 70.0 °F 90% 30.00 in 10.0 mi NNW 3.5 mph - N/A   Clear
11:53 PM 73.9 °F - 68.0 °F 82% 30.01 in 10.0 mi Calm Calm - N/A   Clear